| time (UTC) | temp F | wind direction | speed MPH | gust MPH | rain 1hr in | rain 24hr in | rain mn in | humidity % | barometer mb |
| 20260505060717 | 58 | 287 | 0.0 | 0.0 | 0.00 | 0.38 | 0.12 | 85 | 998.2 |
| 20260505060612 | 58 | 260 | 0.0 | 0.0 | 0.00 | 0.38 | 0.12 | 85 | 998.2 |
| 20260505060248 | 58 | 274 | 0.0 | 8.0 | 0.00 | 0.38 | 0.12 | 85 | 998.3 |
| 20260505055701 | 58 | 183 | 1.0 | 6.0 | 0.00 | 0.38 | 0.12 | 85 | 998.1 |
| 20260505055552 | 58 | 175 | 1.0 | 6.0 | 0.00 | 0.38 | 0.12 | 85 | 998.0 |
| 20260505055445 | 58 | 169 | 1.0 | 6.0 | 0.00 | 0.38 | 0.12 | 86 | 998.1 |
| 20260505055337 | 58 | 210 | 1.0 | 6.0 | 0.00 | 0.38 | 0.12 | 86 | 998.1 |
| 20260505055231 | 58 | 204 | 1.0 | 6.0 | 0.00 | 0.38 | 0.12 | 86 | 998.0 |
| 20260505055127 | 57 | 192 | 2.0 | 9.0 | 0.00 | 0.38 | 0.12 | 86 | 998.1 |
| 20260505055022 | 57 | 216 | 2.0 | 9.0 | 0.00 | 0.38 | 0.12 | 86 | 998.1 |
| 20260505054439 | 57 | 244 | 2.0 | 9.0 | 0.00 | 0.38 | 0.12 | 86 | 998.2 |
| 20260505054335 | 57 | 233 | 3.0 | 9.0 | 0.00 | 0.38 | 0.12 | 86 | 998.2 |
| 20260505054228 | 57 | 202 | 3.0 | 9.0 | 0.00 | 0.38 | 0.12 | 86 | 998.3 |
| 20260505054121 | 57 | 198 | 3.0 | 10.0 | 0.00 | 0.38 | 0.12 | 86 | 998.2 |
| 20260505054018 | 57 | 190 | 3.0 | 10.0 | 0.00 | 0.38 | 0.12 | 86 | 998.1 |
| 20260505053914 | 57 | 202 | 3.0 | 10.0 | 0.00 | 0.38 | 0.12 | 86 | 998.1 |
| 20260505053810 | 57 | 184 | 3.0 | 10.0 | 0.00 | 0.38 | 0.12 | 86 | 998.0 |
| 20260505053705 | 57 | 0 | 3.0 | 10.0 | 0.00 | 0.38 | 0.12 | 86 | 998.0 |
| 20260505053559 | 57 | 215 | 3.0 | 10.0 | 0.00 | 0.38 | 0.12 | 86 | 997.9 |
| 20260505053233 | 57 | 180 | 3.0 | 10.0 | 0.00 | 0.38 | 0.12 | 86 | 997.8 |
| 20260505053128 | 57 | 204 | 3.0 | 10.0 | 0.00 | 0.38 | 0.12 | 86 | 997.9 |
| 20260505053025 | 57 | 144 | 3.0 | 10.0 | 0.00 | 0.38 | 0.12 | 86 | 998.0 |
| 20260505052919 | 57 | 178 | 3.0 | 10.0 | 0.00 | 0.38 | 0.12 | 86 | 998.1 |
| 20260505052812 | 57 | 0 | 3.0 | 10.0 | 0.00 | 0.38 | 0.12 | 86 | 998.1 |
| 20260505052710 | 57 | 201 | 3.0 | 10.0 | 0.00 | 0.38 | 0.12 | 86 | 998.1 |
| 20260505052607 | 57 | 192 | 3.0 | 10.0 | 0.00 | 0.38 | 0.12 | 86 | 998.2 |
| 20260505052244 | 57 | 155 | 3.0 | 10.0 | 0.00 | 0.38 | 0.12 | 85 | 997.8 |
| 20260505052137 | 58 | 170 | 2.0 | 9.0 | 0.00 | 0.38 | 0.12 | 85 | 997.8 |
| 20260505052035 | 58 | 161 | 2.0 | 9.0 | 0.00 | 0.37 | 0.12 | 85 | 997.7 |
| 20260505051230 | 58 | 203 | 0.0 | 9.0 | 0.04 | 0.37 | 0.10 | 84 | 998.1 |
| 20260505051128 | 58 | 229 | 0.0 | 0.0 | 0.04 | 0.37 | 0.10 | 84 | 998.1 |
| 20260505051020 | 58 | 182 | 0.0 | 0.0 | 0.05 | 0.37 | 0.10 | 84 | 998.1 |
| 20260505050914 | 58 | 207 | 0.0 | 0.0 | 0.05 | 0.37 | 0.10 | 83 | 998.0 |
| 20260505050807 | 58 | 212 | 0.0 | 0.0 | 0.06 | 0.37 | 0.10 | 83 | 997.9 |
| 20260505050705 | 58 | 180 | 0.0 | 10.0 | 0.06 | 0.37 | 0.10 | 83 | 997.9 |
| 20260505050601 | 58 | 223 | 1.0 | 10.0 | 0.06 | 0.37 | 0.10 | 83 | 998.0 |
| 20260505050454 | 58 | 225 | 2.0 | 10.0 | 0.09 | 0.37 | 0.10 | 83 | 998.0 |
| 20260505050351 | 58 | 230 | 2.0 | 10.0 | 0.10 | 0.37 | 0.10 | 83 | 998.0 |
| 20260505050248 | 58 | 229 | 3.0 | 10.0 | 0.12 | 0.37 | 0.10 | 83 | 998.1 |
| 20260505041540 | 58 | 227 | 1.0 | 0.0 | 0.05 | 0.28 | 0.02 | 82 | 998.6 |
| 20260505041434 | 59 | 227 | 1.0 | 9.0 | 0.06 | 0.28 | 0.02 | 82 | 998.6 |
| 20260505041331 | 59 | 227 | 1.0 | 0.0 | 0.06 | 0.26 | 0.02 | 82 | 998.7 |
| 20260505041007 | 59 | 203 | 3.0 | 6.0 | 0.10 | 0.26 | 0.02 | 82 | 999.0 |
| 20260505040643 | 59 | 232 | 4.0 | 21.0 | 0.19 | 0.26 | 0.02 | 81 | 999.3 |
| 20260505040535 | 59 | 201 | 5.0 | 21.0 | 0.19 | 0.26 | 0.02 | 81 | 999.4 |
| 20260505040432 | 59 | 244 | 6.0 | 21.0 | 0.20 | 0.26 | 0.01 | 80 | 999.5 |
| 20260505040329 | 59 | 214 | 7.0 | 21.0 | 0.25 | 0.26 | 0.01 | 80 | 999.5 |
| 20260505040225 | 60 | 149 | 7.0 | 21.0 | 0.25 | 0.26 | 0.01 | 79 | 999.6 |
| 20260505040118 | 60 | 244 | 8.0 | 27.0 | 0.20 | 0.26 | 0.00 | 79 | 999.7 |
| 20260505035314 | 62 | 192 | 9.0 | 27.0 | 0.00 | 0.24 | 0.24 | 73 | 1000.0 |
| 20260505035210 | 63 | 261 | 9.0 | 27.0 | 0.00 | 0.24 | 0.24 | 71 | 1000.1 |
| 20260505035107 | 63 | 250 | 10.0 | 27.0 | 0.00 | 0.24 | 0.24 | 70 | 999.9 |
| 20260505035005 | 63 | 269 | 10.0 | 27.0 | 0.00 | 0.24 | 0.24 | 69 | 999.8 |
| 20260505034903 | 64 | 269 | 11.0 | 27.0 | 0.00 | 0.24 | 0.24 | 69 | 999.9 |
| 20260505034757 | 64 | 246 | 11.0 | 27.0 | 0.00 | 0.24 | 0.24 | 68 | 999.8 |
| 20260505034652 | 64 | 280 | 11.0 | 27.0 | 0.00 | 0.24 | 0.24 | 67 | 999.8 |
| 20260505034549 | 65 | 259 | 11.0 | 27.0 | 0.00 | 0.24 | 0.24 | 67 | 999.7 |
| 20260505034446 | 65 | 242 | 11.0 | 27.0 | 0.00 | 0.24 | 0.24 | 66 | 999.8 |
| 20260505034341 | 65 | 245 | 12.0 | 27.0 | 0.00 | 0.24 | 0.24 | 66 | 999.7 |
| 20260505034236 | 65 | 261 | 11.0 | 27.0 | 0.00 | 0.24 | 0.24 | 65 | 999.5 |
| 20260505034131 | 66 | 239 | 11.0 | 25.0 | 0.00 | 0.24 | 0.24 | 65 | 999.4 |
| 20260505033807 | 66 | 227 | 9.0 | 25.0 | 0.00 | 0.24 | 0.24 | 64 | 999.2 |
| 20260505033702 | 67 | 250 | 8.0 | 25.0 | 0.00 | 0.24 | 0.24 | 64 | 999.2 |
| 20260505033559 | 67 | 234 | 7.0 | 25.0 | 0.00 | 0.24 | 0.24 | 64 | 999.1 |
| 20260505033456 | 67 | 0 | 7.0 | 25.0 | 0.00 | 0.24 | 0.24 | 63 | 999.0 |
| 20260505033349 | 67 | 193 | 6.0 | 21.0 | 0.00 | 0.24 | 0.24 | 64 | 999.0 |
| 20260505033028 | 67 | 250 | 4.0 | 15.0 | 0.00 | 0.24 | 0.24 | 66 | 998.8 |
| 20260505032921 | 67 | 251 | 4.0 | 15.0 | 0.00 | 0.24 | 0.24 | 66 | 998.6 |
| 20260505032816 | 67 | 240 | 4.0 | 15.0 | 0.00 | 0.24 | 0.24 | 66 | 998.6 |
| 20260505032714 | 67 | 259 | 4.0 | 15.0 | 0.00 | 0.24 | 0.24 | 66 | 998.5 |
| 20260505032350 | 67 | 261 | 4.0 | 15.0 | 0.00 | 0.24 | 0.24 | 67 | 998.3 |
| 20260505032245 | 66 | 219 | 4.0 | 15.0 | 0.00 | 0.24 | 0.24 | 67 | 998.3 |
| 20260505032139 | 66 | 255 | 4.0 | 15.0 | 0.00 | 0.24 | 0.24 | 66 | 998.2 |
| 20260505032035 | 66 | 204 | 4.0 | 15.0 | 0.00 | 0.24 | 0.24 | 67 | 998.2 |
| 20260505031930 | 66 | 190 | 4.0 | 15.0 | 0.00 | 0.24 | 0.24 | 67 | 998.1 |
| 20260505031828 | 66 | 248 | 4.0 | 15.0 | 0.00 | 0.24 | 0.24 | 67 | 998.1 |
| 20260505031721 | 66 | 219 | 3.0 | 15.0 | 0.00 | 0.24 | 0.24 | 67 | 998.0 |
| 20260505031615 | 66 | 262 | 2.0 | 15.0 | 0.00 | 0.24 | 0.24 | 68 | 998.0 |
| 20260505031512 | 66 | 154 | 2.0 | 15.0 | 0.00 | 0.24 | 0.24 | 68 | 998.0 |
| 20260505031407 | 66 | 244 | 2.0 | 14.0 | 0.00 | 0.24 | 0.24 | 68 | 997.9 |
| 20260505031303 | 66 | 179 | 1.0 | 8.0 | 0.00 | 0.24 | 0.24 | 68 | 998.0 |
| 20260505031158 | 66 | 144 | 1.0 | 9.0 | 0.00 | 0.24 | 0.24 | 68 | 998.0 |
| 20260505031054 | 66 | 184 | 1.0 | 9.0 | 0.00 | 0.24 | 0.24 | 67 | 998.0 |
| 20260505030947 | 66 | 191 | 1.0 | 9.0 | 0.00 | 0.24 | 0.24 | 67 | 997.9 |
| 20260505030844 | 66 | 210 | 1.0 | 9.0 | 0.00 | 0.24 | 0.24 | 67 | 997.8 |
| 20260505030515 | 66 | 228 | 1.0 | 9.0 | 0.00 | 0.24 | 0.24 | 67 | 997.9 |
| 20260505030148 | 66 | 185 | 1.0 | 11.0 | 0.00 | 0.24 | 0.24 | 67 | 997.9 |
| 20260505030044 | 66 | 207 | 1.0 | 11.0 | 0.00 | 0.24 | 0.24 | 67 | 997.9 |
| 20260505025937 | 66 | 191 | 1.0 | 11.0 | 0.00 | 0.24 | 0.24 | 66 | 997.9 |
| 20260505025835 | 66 | 173 | 2.0 | 11.0 | 0.00 | 0.24 | 0.24 | 66 | 997.9 |
| 20260505025730 | 66 | 174 | 2.0 | 11.0 | 0.00 | 0.24 | 0.24 | 67 | 997.9 |
| 20260505025621 | 66 | 180 | 3.0 | 11.0 | 0.00 | 0.24 | 0.24 | 66 | 998.0 |
| 20260505025518 | 66 | 182 | 2.0 | 11.0 | 0.00 | 0.24 | 0.24 | 67 | 998.0 |
| 20260505025413 | 66 | 0 | 2.0 | 11.0 | 0.00 | 0.24 | 0.24 | 66 | 998.0 |
| 20260505025310 | 66 | 186 | 3.0 | 11.0 | 0.00 | 0.24 | 0.24 | 66 | 998.1 |
| 20260505024726 | 66 | 146 | 3.0 | 11.0 | 0.00 | 0.24 | 0.24 | 66 | 998.1 |
| 20260505024621 | 66 | 186 | 2.0 | 11.0 | 0.00 | 0.24 | 0.24 | 66 | 998.1 |
| 20260505024518 | 66 | 211 | 2.0 | 11.0 | 0.00 | 0.24 | 0.24 | 66 | 998.1 |
| 20260505024412 | 66 | 219 | 2.0 | 11.0 | 0.00 | 0.24 | 0.24 | 66 | 998.0 |
| 20260505024307 | 66 | 172 | 2.0 | 11.0 | 0.00 | 0.24 | 0.24 | 66 | 998.0 |
| 20260505024204 | 66 | 205 | 1.0 | 7.0 | 0.00 | 0.24 | 0.24 | 66 | 998.1 |
| 20260505024057 | 66 | 215 | 0.0 | 6.0 | 0.00 | 0.24 | 0.24 | 66 | 998.1 |
| 20260505023954 | 66 | 171 | 1.0 | 8.0 | 0.00 | 0.24 | 0.24 | 66 | 998.1 |
| 20260505023850 | 66 | 173 | 1.0 | 8.0 | 0.00 | 0.24 | 0.24 | 66 | 998.1 |
| 20260505023745 | 66 | 180 | 0.0 | 8.0 | 0.00 | 0.24 | 0.24 | 66 | 998.2 |
| 20260505023641 | 66 | 180 | 0.0 | 8.0 | 0.00 | 0.24 | 0.24 | 66 | 998.1 |
| 20260505023537 | 67 | 188 | 0.0 | 8.0 | 0.00 | 0.24 | 0.24 | 66 | 998.2 |
| 20260505023432 | 67 | 208 | 0.0 | 8.0 | 0.00 | 0.24 | 0.24 | 66 | 998.1 |
| 20260505023325 | 67 | 144 | 1.0 | 8.0 | 0.00 | 0.24 | 0.24 | 66 | 998.2 |
| 20260505023223 | 67 | 184 | 1.0 | 8.0 | 0.00 | 0.24 | 0.24 | 66 | 998.2 |
| 20260505023119 | 67 | 197 | 1.0 | 8.0 | 0.00 | 0.24 | 0.24 | 66 | 998.2 |
| 20260505023013 | 67 | 198 | 1.0 | 11.0 | 0.00 | 0.24 | 0.24 | 65 | 998.2 |
| 20260505022905 | 67 | 171 | 2.0 | 11.0 | 0.00 | 0.24 | 0.24 | 66 | 998.2 |
| 20260505022758 | 67 | 173 | 2.0 | 11.0 | 0.00 | 0.24 | 0.24 | 66 | 998.2 |
| 20260505022655 | 67 | 179 | 2.0 | 11.0 | 0.00 | 0.24 | 0.24 | 65 | 998.2 |
| 20260505022553 | 67 | 201 | 2.0 | 11.0 | 0.00 | 0.24 | 0.24 | 65 | 998.2 |
| 20260505022233 | 67 | 217 | 2.0 | 11.0 | 0.00 | 0.24 | 0.24 | 65 | 998.2 |
| 20260505022131 | 67 | 218 | 2.0 | 11.0 | 0.00 | 0.24 | 0.24 | 65 | 998.3 |
| 20260505022028 | 67 | 220 | 2.0 | 11.0 | 0.00 | 0.24 | 0.24 | 65 | 998.3 |
| 20260505021926 | 67 | 169 | 2.0 | 11.0 | 0.00 | 0.24 | 0.24 | 65 | 998.3 |
| 20260505021342 | 67 | 200 | 2.0 | 11.0 | 0.00 | 0.24 | 0.24 | 65 | 998.3 |
| 20260505021235 | 67 | 219 | 2.0 | 11.0 | 0.00 | 0.24 | 0.24 | 65 | 998.3 |
| 20260505021131 | 67 | 182 | 3.0 | 11.0 | 0.00 | 0.24 | 0.24 | 65 | 998.2 |
| 20260505021029 | 67 | 246 | 2.0 | 11.0 | 0.00 | 0.24 | 0.24 | 65 | 998.2 |
| 20260505020923 | 67 | 186 | 2.0 | 8.0 | 0.00 | 0.24 | 0.24 | 65 | 998.3 |
| 20260505020820 | 67 | 175 | 3.0 | 8.0 | 0.00 | 0.24 | 0.24 | 65 | 998.2 |
| 20260505020715 | 67 | 0 | 3.0 | 8.0 | 0.00 | 0.24 | 0.24 | 65 | 998.2 |
| 20260505020609 | 66 | 188 | 2.0 | 8.0 | 0.00 | 0.24 | 0.24 | 65 | 998.2 |
| 20260505020504 | 66 | 186 | 2.0 | 8.0 | 0.00 | 0.24 | 0.24 | 65 | 998.2 |
| 20260505020401 | 66 | 213 | 2.0 | 8.0 | 0.00 | 0.24 | 0.24 | 65 | 998.2 |
| 20260505020256 | 66 | 198 | 2.0 | 8.0 | 0.00 | 0.24 | 0.24 | 66 | 998.1 |
| 20260505020152 | 66 | 200 | 2.0 | 8.0 | 0.00 | 0.24 | 0.24 | 66 | 998.1 |
| 20260505020044 | 66 | 180 | 2.0 | 8.0 | 0.00 | 0.24 | 0.24 | 66 | 998.1 |
| 20260505015939 | 66 | 189 | 1.0 | 8.0 | 0.00 | 0.24 | 0.24 | 66 | 998.1 |
| 20260505015836 | 66 | 217 | 1.0 | 8.0 | 0.00 | 0.24 | 0.24 | 67 | 998.1 |
| 20260505015512 | 66 | 203 | 1.0 | 8.0 | 0.00 | 0.24 | 0.24 | 67 | 998.0 |
| 20260505015409 | 66 | 160 | 1.0 | 8.0 | 0.00 | 0.24 | 0.24 | 66 | 998.0 |
| 20260505015305 | 66 | 146 | 1.0 | 6.0 | 0.00 | 0.24 | 0.24 | 67 | 997.9 |
| 20260505015159 | 66 | 178 | 1.0 | 6.0 | 0.00 | 0.24 | 0.24 | 67 | 997.9 |
| 20260505014831 | 66 | 194 | 1.0 | 6.0 | 0.00 | 0.24 | 0.24 | 67 | 997.8 |
| 20260505014726 | 66 | 196 | 1.0 | 6.0 | 0.00 | 0.24 | 0.24 | 67 | 997.8 |
| 20260505014620 | 66 | 211 | 1.0 | 6.0 | 0.00 | 0.24 | 0.24 | 67 | 997.8 |
| 20260505014512 | 66 | 189 | 1.0 | 6.0 | 0.00 | 0.24 | 0.24 | 67 | 997.8 |
| 20260505014408 | 66 | 186 | 1.0 | 6.0 | 0.00 | 0.24 | 0.24 | 67 | 997.8 |
| 20260505014305 | 65 | 209 | 1.0 | 6.0 | 0.00 | 0.24 | 0.24 | 67 | 997.8 |
| 20260505014158 | 65 | 209 | 1.0 | 6.0 | 0.00 | 0.24 | 0.24 | 68 | 997.8 |
| 20260505014056 | 65 | 215 | 1.0 | 6.0 | 0.00 | 0.24 | 0.24 | 68 | 997.8 |
| 20260505013506 | 65 | 181 | 1.0 | 6.0 | 0.00 | 0.24 | 0.24 | 68 | 997.7 |
| 20260505013404 | 65 | 252 | 0.0 | 4.0 | 0.00 | 0.24 | 0.24 | 69 | 997.7 |
| 20260505013302 | 65 | 209 | 0.0 | 4.0 | 0.00 | 0.24 | 0.24 | 68 | 997.7 |
| 20260505013159 | 65 | 186 | 1.0 | 4.0 | 0.00 | 0.24 | 0.24 | 68 | 997.7 |
| 20260505013055 | 65 | 195 | 1.0 | 4.0 | 0.00 | 0.24 | 0.24 | 68 | 997.7 |
| 20260505012728 | 65 | 192 | 1.0 | 6.0 | 0.00 | 0.24 | 0.24 | 68 | 997.7 |
| 20260505012624 | 65 | 194 | 1.0 | 6.0 | 0.00 | 0.24 | 0.24 | 68 | 997.8 |
| 20260505012519 | 65 | 210 | 0.0 | 2.0 | 0.00 | 0.24 | 0.24 | 68 | 997.7 |
| 20260505012414 | 65 | 214 | 0.0 | 8.0 | 0.00 | 0.24 | 0.24 | 68 | 997.8 |
| 20260505012308 | 65 | 215 | 0.0 | 8.0 | 0.00 | 0.24 | 0.24 | 68 | 997.8 |
| 20260505011945 | 65 | 0 | 0.0 | 8.0 | 0.00 | 0.24 | 0.24 | 69 | 997.8 |
| 20260505011838 | 65 | 192 | 0.0 | 8.0 | 0.00 | 0.24 | 0.24 | 69 | 997.8 |
| 20260505011736 | 65 | 183 | 1.0 | 8.0 | 0.00 | 0.24 | 0.24 | 70 | 997.9 |
| 20260505011405 | 64 | 240 | 1.0 | 8.0 | 0.00 | 0.24 | 0.24 | 70 | 997.9 |
| 20260505011303 | 64 | 215 | 1.0 | 8.0 | 0.00 | 0.24 | 0.24 | 70 | 997.9 |
| 20260505011158 | 64 | 200 | 1.0 | 8.0 | 0.00 | 0.24 | 0.24 | 71 | 997.9 |
| 20260505011053 | 64 | 212 | 1.0 | 8.0 | 0.00 | 0.24 | 0.24 | 71 | 997.9 |
| 20260505010946 | 64 | 238 | 1.0 | 8.0 | 0.00 | 0.24 | 0.24 | 70 | 997.9 |
| 20260505010840 | 64 | 229 | 1.0 | 7.0 | 0.00 | 0.24 | 0.24 | 71 | 997.9 |
| 20260505010733 | 64 | 240 | 0.0 | 3.0 | 0.00 | 0.24 | 0.24 | 72 | 997.9 |
| 20260505010626 | 64 | 215 | 0.0 | 10.0 | 0.00 | 0.24 | 0.24 | 72 | 997.9 |
| 20260505010524 | 64 | 215 | 0.0 | 10.0 | 0.00 | 0.24 | 0.24 | 72 | 997.8 |
| 20260505010417 | 64 | 228 | 1.0 | 10.0 | 0.00 | 0.24 | 0.24 | 73 | 997.8 |
| 20260505010309 | 64 | 219 | 1.0 | 10.0 | 0.00 | 0.24 | 0.24 | 73 | 997.8 |
| 20260505010202 | 63 | 220 | 1.0 | 10.0 | 0.00 | 0.24 | 0.24 | 73 | 997.9 |
| 20260505010059 | 63 | 208 | 1.0 | 10.0 | 0.00 | 0.24 | 0.24 | 73 | 997.9 |
| 20260505005954 | 63 | 245 | 1.0 | 10.0 | 0.00 | 0.24 | 0.24 | 74 | 997.8 |
| 20260505005851 | 63 | 238 | 1.0 | 10.0 | 0.00 | 0.24 | 0.24 | 74 | 997.9 |
| 20260505005527 | 63 | 233 | 1.0 | 10.0 | 0.00 | 0.24 | 0.24 | 75 | 997.8 |
| 20260505005423 | 63 | 196 | 0.0 | 10.0 | 0.00 | 0.24 | 0.24 | 76 | 997.8 |
| 20260505005321 | 62 | 241 | 0.0 | 10.0 | 0.00 | 0.24 | 0.24 | 77 | 997.7 |
| 20260505005219 | 62 | 209 | 0.0 | 10.0 | 0.00 | 0.24 | 0.24 | 77 | 997.7 |
| 20260505004854 | 62 | 168 | 0.0 | 5.0 | 0.00 | 0.24 | 0.24 | 79 | 997.8 |
| 20260505004748 | 62 | 196 | 0.0 | 5.0 | 0.00 | 0.24 | 0.24 | 79 | 997.7 |
| 20260505004644 | 62 | 189 | 0.0 | 0.0 | 0.00 | 0.24 | 0.24 | 79 | 997.8 |
| 20260505004542 | 62 | 182 | 0.0 | 0.0 | 0.00 | 0.24 | 0.24 | 80 | 997.8 |
| 20260505004434 | 62 | 181 | 0.0 | 0.0 | 0.00 | 0.24 | 0.24 | 80 | 997.8 |
| 20260505004109 | 62 | 199 | 0.0 | 0.0 | 0.00 | 0.24 | 0.24 | 80 | 997.7 |
| 20260505004003 | 62 | 199 | 0.0 | 0.0 | 0.00 | 0.24 | 0.24 | 80 | 997.7 |
| 20260505003642 | 62 | 197 | 0.0 | 0.0 | 0.00 | 0.24 | 0.24 | 80 | 997.6 |
| 20260505003533 | 62 | 207 | 0.0 | 0.0 | 0.00 | 0.24 | 0.24 | 80 | 997.6 |
| 20260505003428 | 62 | 207 | 0.0 | 0.0 | 0.00 | 0.24 | 0.24 | 80 | 997.6 |
| 20260505003322 | 62 | 207 | 0.0 | 0.0 | 0.00 | 0.24 | 0.24 | 80 | 997.6 |
| 20260505003216 | 62 | 207 | 0.0 | 0.0 | 0.00 | 0.24 | 0.24 | 80 | 997.6 |
| 20260505003109 | 62 | 207 | 0.0 | 0.0 | 0.00 | 0.24 | 0.24 | 80 | 997.6 |
| 20260505003005 | 62 | 207 | 0.0 | 0.0 | 0.00 | 0.24 | 0.24 | 80 | 997.5 |
| 20260505002858 | 62 | 219 | 0.0 | 0.0 | 0.00 | 0.24 | 0.24 | 80 | 997.5 |
| 20260505002754 | 62 | 219 | 0.0 | 0.0 | 0.00 | 0.24 | 0.24 | 80 | 997.5 |
| 20260505002647 | 62 | 242 | 0.0 | 0.0 | 0.00 | 0.24 | 0.24 | 80 | 997.5 |
| 20260505002544 | 62 | 242 | 0.0 | 0.0 | 0.00 | 0.24 | 0.24 | 80 | 997.5 |
| 20260505002437 | 62 | 242 | 0.0 | 0.0 | 0.00 | 0.24 | 0.24 | 80 | 997.5 |
| 20260505002333 | 62 | 243 | 0.0 | 0.0 | 0.00 | 0.24 | 0.24 | 81 | 997.4 |
| 20260505002226 | 62 | 243 | 0.0 | 0.0 | 0.00 | 0.24 | 0.24 | 81 | 997.5 |
| 20260505002123 | 62 | 243 | 0.0 | 0.0 | 0.00 | 0.24 | 0.24 | 81 | 997.5 |
| 20260505002018 | 62 | 243 | 0.0 | 0.0 | 0.00 | 0.24 | 0.24 | 80 | 997.5 |
| 20260505001915 | 62 | 243 | 0.0 | 0.0 | 0.00 | 0.24 | 0.24 | 80 | 997.4 |
| 20260505001813 | 62 | 183 | 0.0 | 0.0 | 0.00 | 0.24 | 0.24 | 81 | 997.4 |
| 20260505001708 | 62 | 183 | 0.0 | 0.0 | 0.00 | 0.24 | 0.24 | 81 | 997.4 |
| 20260505001239 | 62 | 183 | 0.0 | 0.0 | 0.00 | 0.24 | 0.24 | 80 | 997.3 |
| 20260505001133 | 62 | 183 | 0.0 | 0.0 | 0.00 | 0.24 | 0.24 | 81 | 997.3 |
| 20260505001026 | 62 | 183 | 0.0 | 0.0 | 0.00 | 0.24 | 0.24 | 81 | 997.2 |
| 20260505000700 | 63 | 173 | 0.0 | 0.0 | 0.00 | 0.24 | 0.24 | 81 | 997.2 |
| 20260505000338 | 63 | 170 | 0.0 | 0.0 | 0.00 | 0.24 | 0.24 | 80 | 997.2 |
| 20260505000235 | 63 | 170 | 0.0 | 0.0 | 0.00 | 0.24 | 0.24 | 80 | 997.2 |
| 20260505000131 | 62 | 158 | 0.0 | 1.0 | 0.00 | 0.24 | 0.24 | 80 | 997.1 |
| 20260505000029 | 62 | 194 | 0.0 | 1.0 | 0.00 | 0.24 | 0.24 | 80 | 997.2 |
| 20260504235923 | 62 | 220 | 0.0 | 0.0 | 0.00 | 0.24 | 0.24 | 81 | 997.2 |
| 20260504235819 | 62 | 230 | 0.0 | 6.0 | 0.00 | 0.24 | 0.24 | 80 | 997.2 |
| 20260504235713 | 62 | 236 | 0.0 | 6.0 | 0.00 | 0.24 | 0.24 | 80 | 997.2 |
| 20260504235610 | 62 | 190 | 0.0 | 6.0 | 0.00 | 0.24 | 0.24 | 80 | 997.2 |
| 20260504235245 | 62 | 232 | 0.0 | 5.0 | 0.00 | 0.24 | 0.24 | 82 | 997.3 |
| 20260504235137 | 62 | 202 | 0.0 | 0.0 | 0.00 | 0.24 | 0.24 | 82 | 997.3 |
| 20260504235035 | 62 | 192 | 0.0 | 1.0 | 0.00 | 0.24 | 0.24 | 82 | 997.3 |
| 20260504234930 | 62 | 201 | 0.0 | 1.0 | 0.04 | 0.24 | 0.24 | 82 | 997.4 |
| 20260504234605 | 61 | 246 | 1.0 | 2.0 | 0.05 | 0.24 | 0.24 | 82 | 997.4 |
| 20260504234459 | 61 | 209 | 1.0 | 7.0 | 0.05 | 0.24 | 0.24 | 83 | 997.6 |
| 20260504234356 | 61 | 184 | 1.0 | 7.0 | 0.06 | 0.24 | 0.24 | 83 | 997.6 |
| 20260504234249 | 61 | 178 | 1.0 | 7.0 | 0.06 | 0.24 | 0.24 | 83 | 997.6 |
| 20260504233925 | 61 | 273 | 1.0 | 7.0 | 0.10 | 0.24 | 0.24 | 85 | 997.7 |
| 20260504233820 | 61 | 288 | 1.0 | 7.0 | 0.10 | 0.24 | 0.24 | 85 | 997.6 |
| 20260504233718 | 60 | 280 | 1.0 | 4.0 | 0.10 | 0.24 | 0.24 | 85 | 997.7 |
| 20260504233136 | 60 | 239 | 2.0 | 8.0 | 0.09 | 0.23 | 0.23 | 86 | 998.0 |
| 20260504233029 | 60 | 240 | 2.0 | 8.0 | 0.09 | 0.23 | 0.23 | 86 | 997.9 |
| 20260504232926 | 60 | 239 | 2.0 | 8.0 | 0.09 | 0.21 | 0.23 | 87 | 997.8 |
| 20260504232822 | 60 | 272 | 1.0 | 8.0 | 0.09 | 0.21 | 0.23 | 87 | 997.7 |
| 20260504232718 | 60 | 237 | 1.0 | 8.0 | 0.00 | 0.21 | 0.21 | 87 | 997.7 |
| 20260504232614 | 59 | 257 | 1.0 | 8.0 | 0.00 | 0.21 | 0.21 | 87 | 997.8 |
| 20260504232508 | 59 | 291 | 0.0 | 6.0 | 0.00 | 0.21 | 0.21 | 87 | 998.2 |
| 20260504232404 | 59 | 296 | 0.0 | 5.0 | 0.00 | 0.21 | 0.21 | 87 | 998.2 |
| 20260504232301 | 59 | 281 | 0.0 | 3.0 | 0.00 | 0.21 | 0.21 | 87 | 998.1 |
| 20260504232158 | 59 | 253 | 0.0 | 0.0 | 0.00 | 0.21 | 0.21 | 87 | 998.1 |
| 20260504232054 | 59 | 253 | 0.0 | 0.0 | 0.00 | 0.21 | 0.21 | 87 | 998.1 |
| 20260504231946 | 59 | 252 | 0.0 | 0.0 | 0.00 | 0.21 | 0.21 | 87 | 998.1 |
| 20260504231841 | 59 | 252 | 0.0 | 0.0 | 0.00 | 0.21 | 0.21 | 87 | 998.2 |
| 20260504231737 | 59 | 253 | 0.0 | 0.0 | 0.00 | 0.21 | 0.21 | 87 | 998.1 |
| 20260504231634 | 59 | 253 | 0.0 | 5.0 | 0.00 | 0.21 | 0.21 | 87 | 998.1 |
| 20260504231527 | 59 | 277 | 0.0 | 3.0 | 0.00 | 0.21 | 0.21 | 86 | 998.2 |
| 20260504231423 | 59 | 285 | 0.0 | 0.0 | 0.00 | 0.21 | 0.21 | 86 | 998.0 |
| 20260504231317 | 59 | 286 | 0.0 | 0.0 | 0.00 | 0.21 | 0.21 | 86 | 998.0 |
| 20260504231213 | 59 | 286 | 0.0 | 0.0 | 0.00 | 0.21 | 0.21 | 86 | 998.0 |
| 20260504231107 | 59 | 288 | 0.0 | 0.0 | 0.00 | 0.21 | 0.21 | 85 | 997.9 |
| 20260504231003 | 59 | 289 | 0.0 | 0.0 | 0.00 | 0.21 | 0.21 | 85 | 997.7 |
| 20260504230859 | 59 | 268 | 0.0 | 0.0 | 0.00 | 0.21 | 0.21 | 85 | 997.5 |
| 20260504230751 | 59 | 267 | 0.0 | 0.0 | 0.00 | 0.21 | 0.21 | 85 | 997.5 |
| 20260504230645 | 59 | 267 | 0.0 | 0.0 | 0.00 | 0.21 | 0.21 | 84 | 997.5 |
| 20260504230542 | 59 | 267 | 0.0 | 0.0 | 0.00 | 0.21 | 0.21 | 84 | 997.4 |
| 20260504230439 | 59 | 267 | 0.0 | 0.0 | 0.00 | 0.21 | 0.21 | 84 | 997.4 |
| 20260504230115 | 59 | 267 | 0.0 | 0.0 | 0.00 | 0.19 | 0.20 | 84 | 997.4 |
| 20260504230008 | 59 | 268 | 0.0 | 0.0 | 0.00 | 0.19 | 0.20 | 84 | 997.4 |
| 20260504225901 | 59 | 268 | 0.0 | 0.0 | 0.00 | 0.19 | 0.20 | 83 | 997.7 |
| 20260504225536 | 59 | 268 | 0.0 | 0.0 | 0.04 | 0.19 | 0.20 | 82 | 998.0 |
| 20260504225429 | 59 | 268 | 0.0 | 0.0 | 0.04 | 0.19 | 0.20 | 82 | 998.0 |
| 20260504225327 | 59 | 268 | 0.0 | 0.0 | 0.05 | 0.19 | 0.20 | 82 | 998.1 |
| 20260504224740 | 60 | 272 | 3.0 | 25.0 | 0.09 | 0.19 | 0.20 | 79 | 998.0 |
| 20260504224414 | 61 | 329 | 6.0 | 25.0 | 0.17 | 0.19 | 0.20 | 77 | 998.0 |
| 20260504224306 | 61 | 231 | 7.0 | 25.0 | 0.26 | 0.19 | 0.20 | 77 | 998.1 |
| 20260504224159 | 62 | 262 | 9.0 | 25.0 | 0.48 | 0.19 | 0.20 | 75 | 998.3 |
| 20260504223837 | 64 | 257 | 10.0 | 25.0 | 1.40 | 0.13 | 0.17 | 69 | 998.5 |
| 20260504223732 | 66 | 200 | 9.0 | 25.0 | 6.62 | 0.02 | 0.13 | 67 | 998.5 |
| 20260504223624 | 68 | 192 | 8.0 | 25.0 | 3.62 | 0.01 | 0.04 | 67 | 998.4 |
| 20260504223518 | 69 | 178 | 7.0 | 25.0 | 0.84 | 0.00 | 0.02 | 63 | 998.4 |
| 20260504223411 | 71 | 212 | 6.0 | 25.0 | 0.00 | 0.00 | 0.00 | 61 | 998.1 |
| 20260504223308 | 72 | 208 | 5.0 | 25.0 | 0.00 | 0.00 | 0.00 | 58 | 997.9 |
| 20260504222943 | 74 | 229 | 2.0 | 9.0 | 0.00 | 0.00 | 0.00 | 54 | 997.2 |
| 20260504222836 | 74 | 196 | 2.0 | 9.0 | 0.00 | 0.00 | 0.00 | 53 | 996.9 |
| 20260504222730 | 74 | 246 | 2.0 | 9.0 | 0.00 | 0.00 | 0.00 | 53 | 996.9 |
| 20260504222625 | 74 | 241 | 2.0 | 9.0 | 0.00 | 0.00 | 0.00 | 53 | 996.9 |
| 20260504222520 | 74 | 192 | 2.0 | 9.0 | 0.00 | 0.00 | 0.00 | 53 | 996.8 |
| 20260504222413 | 74 | 211 | 2.0 | 9.0 | 0.00 | 0.00 | 0.00 | 53 | 996.8 |
| 20260504222306 | 74 | 229 | 2.0 | 9.0 | 0.00 | 0.00 | 0.00 | 53 | 996.7 |
| 20260504222203 | 74 | 195 | 2.0 | 9.0 | 0.00 | 0.00 | 0.00 | 53 | 996.7 |
| 20260504222059 | 74 | 196 | 1.0 | 9.0 | 0.00 | 0.00 | 0.00 | 53 | 996.7 |
| 20260504221953 | 74 | 220 | 1.0 | 9.0 | 0.00 | 0.00 | 0.00 | 52 | 996.7 |
| 20260504221845 | 74 | 254 | 1.0 | 9.0 | 0.00 | 0.00 | 0.00 | 52 | 996.7 |
| 20260504221741 | 74 | 247 | 2.0 | 9.0 | 0.00 | 0.00 | 0.00 | 53 | 996.7 |
| 20260504221638 | 75 | 288 | 2.0 | 9.0 | 0.00 | 0.00 | 0.00 | 53 | 996.7 |
| 20260504221534 | 75 | 213 | 1.0 | 9.0 | 0.00 | 0.00 | 0.00 | 53 | 996.7 |
| 20260504221427 | 75 | 188 | 1.0 | 6.0 | 0.00 | 0.00 | 0.00 | 52 | 996.8 |
| 20260504221323 | 75 | 165 | 1.0 | 6.0 | 0.00 | 0.00 | 0.00 | 52 | 996.8 |
| 20260504221218 | 75 | 196 | 1.0 | 0.0 | 0.00 | 0.00 | 0.00 | 53 | 996.8 |
| 20260504220848 | 76 | 231 | 2.0 | 9.0 | 0.00 | 0.00 | 0.00 | 53 | 996.8 |
| 20260504220745 | 76 | 264 | 2.0 | 9.0 | 0.00 | 0.00 | 0.00 | 52 | 996.7 |
| 20260504220638 | 76 | 200 | 3.0 | 13.0 | 0.00 | 0.00 | 0.00 | 53 | 996.9 |
| 20260504220536 | 76 | 217 | 3.0 | 13.0 | 0.00 | 0.00 | 0.00 | 52 | 996.8 |
| 20260504220434 | 76 | 222 | 3.0 | 13.0 | 0.00 | 0.00 | 0.00 | 51 | 996.9 |
| 20260504220330 | 76 | 200 | 3.0 | 13.0 | 0.00 | 0.00 | 0.00 | 51 | 996.9 |
| 20260504220224 | 76 | 233 | 3.0 | 13.0 | 0.00 | 0.00 | 0.00 | 51 | 996.9 |
| 20260504215903 | 76 | 232 | 4.0 | 13.0 | 0.00 | 0.00 | 0.00 | 52 | 997.0 |
| 20260504215757 | 76 | 264 | 3.0 | 13.0 | 0.00 | 0.00 | 0.00 | 51 | 997.1 |
| 20260504215650 | 76 | 162 | 3.0 | 12.0 | 0.00 | 0.00 | 0.00 | 51 | 997.2 |
| 20260504215546 | 76 | 224 | 3.0 | 11.0 | 0.00 | 0.00 | 0.00 | 51 | 997.2 |
| 20260504215441 | 76 | 160 | 3.0 | 11.0 | 0.00 | 0.00 | 0.00 | 51 | 997.2 |
| 20260504215337 | 76 | 169 | 3.0 | 11.0 | 0.00 | 0.00 | 0.00 | 51 | 997.1 |
| 20260504215233 | 76 | 168 | 4.0 | 11.0 | 0.00 | 0.00 | 0.00 | 53 | 997.2 |
| 20260504215129 | 76 | 271 | 4.0 | 11.0 | 0.00 | 0.00 | 0.00 | 51 | 997.2 |
| 20260504215026 | 76 | 248 | 4.0 | 11.0 | 0.00 | 0.00 | 0.00 | 51 | 997.2 |
| 20260504214656 | 76 | 228 | 3.0 | 11.0 | 0.00 | 0.00 | 0.00 | 52 | 997.3 |
| 20260504214549 | 76 | 223 | 3.0 | 11.0 | 0.00 | 0.00 | 0.00 | 53 | 997.4 |
| 20260504214447 | 76 | 220 | 3.0 | 11.0 | 0.00 | 0.00 | 0.00 | 51 | 997.4 |
| 20260504214344 | 75 | 254 | 3.0 | 11.0 | 0.00 | 0.00 | 0.00 | 52 | 997.4 |
| 20260504214237 | 75 | 240 | 3.0 | 15.0 | 0.00 | 0.00 | 0.00 | 52 | 997.4 |
| 20260504214131 | 75 | 216 | 3.0 | 15.0 | 0.00 | 0.00 | 0.00 | 54 | 997.5 |
| 20260504214026 | 75 | 239 | 3.0 | 15.0 | 0.00 | 0.00 | 0.00 | 53 | 997.5 |
| 20260504213701 | 75 | 254 | 4.0 | 15.0 | 0.00 | 0.00 | 0.00 | 53 | 997.5 |